RPA4535 KOKC-KLGA

Flight info

Callsign RPA4535
Flight time N/A
Altitude 35000
Route TRUPR3 TRUPR TUL J78 PLESS/N0462F370 J78 PXV ROD KLYNE Q29 WWSHR TEESY Q186 WEVEL ETG MIP4
Aircraft E75L/M-SDE3GILORVW/S

Departure

Time 2026-05-05 19:03
Airport OKC Will Rogers World Airport (KOKC)

Arrival

Time N/A
Airport LaGuardia Airport (KLGA)
Time Latitude Longitude Altitude Speed Heading
2026-05-05 18:38 35.39475 -97.59802 1292 ft 0 kts 360°
2026-05-05 18:53 35.39471 -97.59802 1292 ft 2 kts
2026-05-05 18:53 35.39457 -97.59802 1292 ft 2 kts 360°
2026-05-05 18:53 35.39442 -97.59802 1292 ft 2 kts 360°
2026-05-05 18:54 35.39432 -97.59802 1292 ft 2 kts
2026-05-05 18:54 35.39419 -97.59795 1292 ft 2 kts 309°
2026-05-05 18:54 35.39414 -97.59781 1292 ft 0 kts 274°
2026-05-05 18:54 35.39415 -97.59772 1292 ft 1 kts 268°
2026-05-05 18:55 35.39415 -97.59771 1292 ft 0 kts 269°
2026-05-05 18:56 35.39411 -97.59789 1292 ft 4 kts 250°
2026-05-05 18:56 35.39389 -97.59816 1292 ft 5 kts 203°
2026-05-05 18:57 35.39350 -97.59826 1292 ft 6 kts 181°
2026-05-05 18:57 35.39304 -97.59826 1292 ft 7 kts 180°
2026-05-05 18:57 35.39246 -97.59844 1290 ft 9 kts 205°
2026-05-05 18:57 35.39213 -97.59922 1288 ft 11 kts 270°
2026-05-05 18:58 35.39214 -97.60029 1286 ft 13 kts 270°
2026-05-05 18:58 35.39214 -97.60139 1286 ft 12 kts 271°
2026-05-05 18:58 35.39214 -97.60249 1284 ft 13 kts 271°
2026-05-05 18:58 35.39190 -97.60358 1282 ft 14 kts 205°
2026-05-05 18:59 35.39088 -97.60359 1281 ft 15 kts 175°
2026-05-05 18:59 35.38971 -97.60352 1279 ft 17 kts 178°
2026-05-05 18:59 35.38845 -97.60347 1276 ft 19 kts 178°
2026-05-05 18:59 35.38701 -97.60339 1274 ft 21 kts 177°
2026-05-05 19:00 35.38541 -97.60338 1270 ft 23 kts 180°
2026-05-05 19:00 35.38370 -97.60336 1267 ft 25 kts 179°
2026-05-05 19:00 35.38210 -97.60335 1264 ft 16 kts 180°
2026-05-05 19:00 35.38088 -97.60335 1262 ft 18 kts 180°
2026-05-05 19:01 35.37954 -97.60342 1259 ft 18 kts 198°
2026-05-05 19:01 35.37918 -97.60422 1259 ft 9 kts 267°
2026-05-05 19:01 35.37917 -97.60497 1259 ft 8 kts 270°
2026-05-05 19:01 35.37925 -97.60564 1259 ft 7 kts 305°
2026-05-05 19:02 35.37941 -97.60571 1260 ft 0 kts 351°
2026-05-05 19:02 35.37968 -97.60574 1260 ft 20 kts 358°
2026-05-05 19:02 35.38313 -97.60573 1266 ft 76 kts 360°
2026-05-05 19:02 35.39011 -97.60575 1277 ft 122 kts
2026-05-05 19:03 35.39964 -97.60574 1412 ft 144 kts 359°
2026-05-05 19:03 35.40989 -97.60603 1803 ft 151 kts
2026-05-05 19:03 35.41927 -97.60090 2324 ft 158 kts 47°
2026-05-05 19:03 35.42277 -97.58778 2806 ft 179 kts 77°
2026-05-05 19:04 35.42724 -97.57309 3121 ft 191 kts 54°
2026-05-05 19:04 35.43399 -97.55828 3428 ft 209 kts 57°
2026-05-05 19:04 35.44088 -97.54198 3831 ft 225 kts 59°
2026-05-05 19:04 35.44790 -97.52461 4440 ft 230 kts 60°
2026-05-05 19:05 35.45522 -97.50604 4633 ft 254 kts 61°
2026-05-05 19:05 35.46309 -97.48573 5009 ft 271 kts 62°
2026-05-05 19:05 35.47119 -97.46464 5493 ft 282 kts 62°
2026-05-05 19:05 35.47957 -97.44272 6065 ft 289 kts 63°
2026-05-05 19:06 35.48827 -97.41993 6660 ft 297 kts 64°
2026-05-05 19:06 35.49698 -97.39706 7302 ft 301 kts 64°
2026-05-05 19:06 35.50595 -97.37350 7963 ft 306 kts 64°
2026-05-05 19:06 35.51496 -97.34982 8566 ft 311 kts 64°
2026-05-05 19:07 35.52412 -97.32571 9125 ft 318 kts 64°
2026-05-05 19:07 35.53346 -97.30112 9706 ft 323 kts 64°
2026-05-05 19:07 35.54305 -97.27586 10269 ft 329 kts 64°
2026-05-05 19:07 35.55278 -97.25022 10753 ft 338 kts 64°
2026-05-05 19:08 35.56288 -97.22357 11218 ft 347 kts 64°
2026-05-05 19:08 35.57309 -97.19661 11676 ft 356 kts 64°
2026-05-05 19:08 35.58374 -97.16844 12129 ft 366 kts 63°
2026-05-05 19:08 35.59452 -97.13995 12628 ft 374 kts 63°
2026-05-05 19:09 35.60549 -97.11087 13243 ft 378 kts 63°
2026-05-05 19:09 35.61657 -97.08151 13822 ft 382 kts 63°
2026-05-05 19:09 35.62780 -97.05173 14405 ft 386 kts 63°
2026-05-05 19:09 35.63903 -97.02190 14991 ft 390 kts 63°
2026-05-05 19:10 35.65045 -96.99158 15569 ft 394 kts 63°
2026-05-05 19:10 35.66199 -96.96088 16100 ft 398 kts 62°
2026-05-05 19:10 35.67536 -96.93109 16613 ft 400 kts 57°
2026-05-05 19:10 35.68926 -96.90133 17125 ft 404 kts 57°
2026-05-05 19:11 35.70318 -96.87133 17647 ft 407 kts 57°
2026-05-05 19:11 35.71706 -96.84135 18104 ft 411 kts 57°
2026-05-05 19:11 35.73122 -96.81068 18582 ft 415 kts 57°
2026-05-05 19:11 35.74558 -96.77959 18999 ft 420 kts 57°
2026-05-05 19:12 35.76004 -96.74822 19465 ft 422 kts 57°
2026-05-05 19:12 35.77456 -96.71671 19919 ft 425 kts 57°
2026-05-05 19:12 35.78902 -96.68529 20330 ft 429 kts 56°
2026-05-05 19:12 35.80376 -96.65324 20727 ft 432 kts 57°
2026-05-05 19:13 35.81862 -96.62089 21128 ft 436 kts 57°
2026-05-05 19:13 35.83367 -96.58810 21501 ft 440 kts 57°
2026-05-05 19:13 35.84862 -96.55550 21883 ft 443 kts 57°
2026-05-05 19:13 35.86391 -96.52209 22263 ft 445 kts 56°
2026-05-05 19:14 35.87911 -96.48889 22664 ft 448 kts 57°
2026-05-05 19:14 35.89428 -96.45570 22994 ft 451 kts 57°
2026-05-05 19:14 35.90982 -96.42167 23331 ft 455 kts 56°
2026-05-05 19:14 35.92528 -96.38779 23672 ft 458 kts 56°
2026-05-05 19:15 35.94102 -96.35328 23981 ft 462 kts 56°
2026-05-05 19:15 35.95678 -96.31864 24252 ft 466 kts 57°
2026-05-05 19:15 35.97267 -96.28370 24570 ft 469 kts 56°
2026-05-05 19:15 35.98869 -96.24844 24854 ft 472 kts 57°
2026-05-05 19:16 36.00464 -96.21328 25175 ft 475 kts 57°
2026-05-05 19:16 36.02078 -96.17770 25446 ft 478 kts 57°
2026-05-05 19:16 36.03704 -96.14179 25769 ft 480 kts 57°
2026-05-05 19:16 36.05319 -96.10608 26034 ft 483 kts 56°
2026-05-05 19:17 36.06968 -96.06963 26276 ft 487 kts 56°
2026-05-05 19:17 36.08624 -96.03291 26574 ft 489 kts 56°
2026-05-05 19:17 36.10284 -95.99612 26842 ft 492 kts 56°
2026-05-05 19:17 36.11935 -95.95946 27098 ft 494 kts 56°
2026-05-05 19:18 36.13614 -95.92215 27362 ft 496 kts 56°
2026-05-05 19:18 36.15297 -95.88470 27619 ft 499 kts 56°
2026-05-05 19:18 36.16966 -95.84753 27897 ft 501 kts 56°
2026-05-05 19:18 36.18668 -95.80957 28092 ft 505 kts 56°
2026-05-05 19:19 36.20159 -95.76985 28367 ft 511 kts 65°
2026-05-05 19:19 36.21380 -95.72864 28558 ft 515 kts 66°
2026-05-05 19:19 36.22609 -95.68679 28795 ft 518 kts 66°
2026-05-05 19:19 36.23829 -95.64519 29041 ft 520 kts 66°
2026-05-05 19:20 36.25067 -95.60295 29279 ft 522 kts 66°
2026-05-05 19:20 36.26292 -95.56104 29554 ft 523 kts 66°
2026-05-05 19:20 36.27528 -95.51877 29788 ft 525 kts 66°
2026-05-05 19:20 36.28773 -95.47607 29985 ft 528 kts 66°
2026-05-05 19:21 36.30022 -95.43314 30187 ft 530 kts 66°
2026-05-05 19:21 36.31275 -95.39006 30403 ft 533 kts 66°
2026-05-05 19:21 36.32523 -95.34711 30634 ft 535 kts 66°
2026-05-05 19:21 36.33788 -95.30342 30870 ft 535 kts 66°
2026-05-05 19:22 36.35054 -95.25969 31053 ft 537 kts 66°
2026-05-05 19:22 36.36336 -95.21532 31192 ft 540 kts 66°
2026-05-05 19:22 36.37618 -95.17087 31351 ft 543 kts 66°
2026-05-05 19:22 36.38887 -95.12675 31648 ft 541 kts 66°
2026-05-05 19:23 36.40144 -95.08309 31890 ft 542 kts 66°
2026-05-05 19:23 36.41407 -95.03903 32124 ft 542 kts 66°
2026-05-05 19:23 36.42680 -94.99467 32403 ft 541 kts 66°
2026-05-05 19:23 36.43933 -94.95086 32643 ft 541 kts 66°
2026-05-05 19:24 36.45184 -94.90710 32879 ft 541 kts 65°
2026-05-05 19:24 36.46437 -94.86311 33116 ft 541 kts 66°
2026-05-05 19:24 36.47697 -94.81891 33284 ft 542 kts 66°
2026-05-05 19:24 36.48940 -94.77514 33558 ft 542 kts 65°
2026-05-05 19:25 36.50187 -94.73128 33853 ft 541 kts 65°
2026-05-05 19:25 36.51433 -94.68730 34157 ft 540 kts 66°
2026-05-05 19:25 36.52668 -94.64358 34464 ft 539 kts 65°
2026-05-05 19:25 36.53917 -94.59941 34744 ft 537 kts 66°
2026-05-05 19:26 36.56378 -94.51208 34805 ft 543 kts 65°
2026-05-05 19:26 36.58891 -94.42259 34810 ft 553 kts 66°
2026-05-05 19:27 36.61443 -94.33147 34795 ft 563 kts 66°
2026-05-05 19:27 36.63996 -94.23988 34792 ft 563 kts 66°
2026-05-05 19:28 36.66559 -94.14776 34793 ft 565 kts 66°
2026-05-05 19:28 36.69118 -94.05534 34795 ft 564 kts 66°
2026-05-05 19:29 36.71654 -93.96348 34807 ft 564 kts 66°
2026-05-05 19:29 36.74204 -93.87082 34795 ft 562 kts 66°
2026-05-05 19:30 36.76717 -93.77921 34799 ft 562 kts 66°
2026-05-05 19:30 36.79234 -93.68707 34806 ft 559 kts 66°
2026-05-05 19:31 36.81749 -93.59476 34807 ft 563 kts 66°
2026-05-05 19:31 36.84240 -93.50298 34814 ft 561 kts 66°
2026-05-05 19:32 36.86718 -93.41129 34814 ft 560 kts 66°
2026-05-05 19:32 36.89210 -93.31883 34788 ft 559 kts 67°
2026-05-05 19:33 36.91672 -93.22712 34800 ft 558 kts 66°
2026-05-05 19:33 36.94124 -93.13548 34790 ft 557 kts 66°
2026-05-05 19:34 36.96566 -93.04391 34789 ft 557 kts 67°
2026-05-05 19:35 37.00230 -92.90588 35140 ft 561 kts 67°
2026-05-05 19:35 37.01455 -92.85957 35374 ft 560 kts 67°
2026-05-05 19:35 37.02668 -92.81361 35621 ft 558 kts 66°
2026-05-05 19:35 37.03875 -92.76785 35843 ft 558 kts 66°
2026-05-05 19:36 37.05084 -92.72189 36050 ft 557 kts 66°
2026-05-05 19:36 37.06287 -92.67612 36247 ft 557 kts 66°
2026-05-05 19:36 37.07491 -92.63020 36427 ft 557 kts 66°
2026-05-05 19:36 37.08682 -92.58466 36605 ft 557 kts 66°
2026-05-05 19:37 37.09896 -92.53826 36762 ft 557 kts 66°
2026-05-05 19:37 37.11091 -92.49240 36899 ft 558 kts 66°
2026-05-05 19:37 37.12294 -92.44616 37063 ft 558 kts 66°
2026-05-05 19:37 37.13490 -92.40014 37250 ft 558 kts 66°
2026-05-05 19:38 37.14676 -92.35443 37421 ft 559 kts 66°
2026-05-05 19:38 37.15874 -92.30811 37568 ft 558 kts 66°
2026-05-05 19:38 37.17070 -92.26185 37703 ft 558 kts 66°
2026-05-05 19:38 37.18263 -92.21562 37861 ft 558 kts 66°
2026-05-05 19:39 37.19439 -92.16996 38009 ft 557 kts 66°
2026-05-05 19:39 37.20626 -92.12380 38152 ft 557 kts 67°
2026-05-05 19:39 37.21822 -92.07711 38323 ft 556 kts 66°
2026-05-05 19:39 37.22989 -92.03156 38444 ft 557 kts 66°
2026-05-05 19:40 37.24172 -91.98530 38542 ft 557 kts 66°
2026-05-05 19:40 37.26545 -91.89222 38797 ft 558 kts 67°
2026-05-05 19:41 37.28890 -91.79984 38810 ft 557 kts 66°
2026-05-05 19:41 37.31225 -91.70757 38817 ft 554 kts 66°
2026-05-05 19:42 37.33555 -91.61517 38824 ft 556 kts 66°
2026-05-05 19:42 37.35864 -91.52322 38824 ft 555 kts 66°
2026-05-05 19:43 37.38177 -91.43082 38836 ft 554 kts 66°
2026-05-05 19:43 37.40468 -91.33890 38831 ft 555 kts 67°
2026-05-05 19:44 37.42759 -91.24673 38822 ft 554 kts 67°
2026-05-05 19:44 37.45042 -91.15447 38825 ft 556 kts 67°
2026-05-05 19:45 37.47332 -91.06154 38830 ft 554 kts 66°
2026-05-05 19:45 37.49594 -90.96942 38832 ft 554 kts 67°
2026-05-05 19:46 37.51863 -90.87667 38829 ft 554 kts 66°
2026-05-05 19:46 37.54112 -90.78442 38831 ft 555 kts 66°
2026-05-05 19:47 37.56360 -90.69185 38835 ft 556 kts 67°
2026-05-05 19:47 37.57478 -90.64558 38887 ft 545 kts 66°
2026-05-05 19:47 37.58553 -90.60109 38706 ft 529 kts 66°
2026-05-05 19:47 37.59602 -90.55754 38689 ft 510 kts 65°
2026-05-05 19:48 37.60612 -90.51562 38632 ft 493 kts 65°
2026-05-05 19:48 37.61591 -90.47492 38573 ft 476 kts 65°
2026-05-05 19:48 37.62537 -90.43557 38507 ft 471 kts 65°
2026-05-05 19:49 37.64436 -90.35638 38597 ft 478 kts 65°
2026-05-05 19:49 37.66369 -90.27529 38593 ft 486 kts 65°
2026-05-05 19:49 37.67253 -90.23413 38318 ft 502 kts 73°
2026-05-05 19:50 37.67833 -90.18996 37955 ft 516 kts 77°
2026-05-05 19:50 37.68848 -90.10023 38004 ft 523 kts 77°
2026-05-05 19:51 37.69862 -90.00893 38018 ft 531 kts 77°
2026-05-05 19:51 37.70890 -89.91586 38036 ft 538 kts 78°
2026-05-05 19:52 37.71916 -89.82203 38066 ft 546 kts 77°
2026-05-05 19:52 37.72950 -89.72686 38097 ft 553 kts 78°
2026-05-05 19:53 37.73988 -89.63059 38169 ft 558 kts 77°
2026-05-05 19:53 37.75030 -89.53303 38379 ft 560 kts 77°
2026-05-05 19:53 37.75545 -89.48469 38541 ft 560 kts 78°
2026-05-05 19:54 37.76057 -89.43633 38704 ft 560 kts 77°
2026-05-05 19:54 37.76567 -89.38794 38861 ft 559 kts 77°
2026-05-05 19:54 37.77084 -89.33884 38840 ft 560 kts 78°
2026-05-05 19:55 37.78094 -89.24203 38833 ft 558 kts 78°
2026-05-05 19:55 37.79101 -89.14483 38833 ft 558 kts 78°
2026-05-05 19:56 37.80095 -89.04802 38831 ft 558 kts 78°
2026-05-05 19:56 37.81080 -88.95152 38837 ft 557 kts 78°
2026-05-05 19:57 37.82084 -88.85473 38838 ft 557 kts 78°
2026-05-05 19:57 37.83078 -88.75798 38847 ft 557 kts 78°
2026-05-05 19:58 37.84066 -88.66097 38844 ft 555 kts 77°
2026-05-05 19:58 37.85036 -88.56505 38842 ft 554 kts 78°
2026-05-05 19:59 37.86006 -88.46818 38845 ft 553 kts 77°
2026-05-05 19:59 37.86959 -88.37232 38845 ft 554 kts 78°
2026-05-05 20:00 37.87908 -88.27599 38821 ft 552 kts 78°
2026-05-05 20:00 37.88851 -88.17947 38821 ft 552 kts 78°
2026-05-05 20:01 37.89778 -88.08376 38823 ft 551 kts 78°
2026-05-05 20:01 37.90699 -87.98795 38825 ft 550 kts 78°
2026-05-05 20:02 37.91611 -87.89212 38840 ft 552 kts 78°
2026-05-05 20:02 37.93051 -87.79791 38851 ft 540 kts 63°
2026-05-05 20:03 37.96135 -87.71344 38845 ft 523 kts 48°
2026-05-05 20:03 37.98212 -87.67662 38858 ft 506 kts 38°
2026-05-05 20:03 38.00574 -87.64449 38855 ft 499 kts 35°
2026-05-05 20:04 38.05200 -87.57778 38852 ft 505 kts 37°
2026-05-05 20:04 38.09707 -87.51039 38840 ft 506 kts 38°
2026-05-05 20:05 38.14249 -87.44222 38843 ft 507 kts 38°
2026-05-05 20:05 38.18750 -87.37447 38846 ft 501 kts 38°
2026-05-05 20:06 38.23264 -87.30646 38819 ft 505 kts 39°
2026-05-05 20:06 38.27763 -87.23844 38811 ft 504 kts 38°
2026-05-05 20:07 38.32271 -87.17020 38824 ft 503 kts 38°
2026-05-05 20:07 38.36768 -87.10200 38830 ft 504 kts 38°
2026-05-05 20:08 38.41236 -87.03405 38834 ft 502 kts 38°
2026-05-05 20:08 38.45731 -86.96555 38829 ft 502 kts 38°
2026-05-05 20:09 38.50200 -86.89732 38827 ft 503 kts 38°
2026-05-05 20:09 38.54666 -86.82898 38843 ft 502 kts 38°
2026-05-05 20:10 38.59125 -86.76060 38841 ft 500 kts 38°
2026-05-05 20:10 38.63579 -86.69217 38843 ft 502 kts 38°
2026-05-05 20:11 38.68037 -86.62350 38848 ft 503 kts 38°
2026-05-05 20:11 38.72457 -86.55530 38844 ft 500 kts 38°
2026-05-05 20:12 38.76874 -86.48698 38848 ft 498 kts 38°
2026-05-05 20:12 38.81293 -86.41849 38844 ft 500 kts 38°
2026-05-05 20:13 38.85693 -86.35014 38854 ft 497 kts 38°
2026-05-05 20:13 38.90114 -86.28135 38830 ft 502 kts 39°
2026-05-05 20:14 38.94515 -86.21265 38820 ft 497 kts 39°
2026-05-05 20:14 38.98918 -86.14385 38827 ft 501 kts 39°
2026-05-05 20:15 39.03307 -86.07507 38821 ft 497 kts 39°
2026-05-05 20:15 39.07679 -86.00642 38830 ft 496 kts 38°
2026-05-05 20:16 39.12036 -85.93787 38843 ft 496 kts 39°
2026-05-05 20:16 39.16385 -85.86932 38841 ft 498 kts 39°
2026-05-05 20:17 39.20749 -85.80033 38852 ft 495 kts 39°
2026-05-05 20:17 39.25109 -85.73130 38848 ft 501 kts 39°
2026-05-05 20:18 39.29503 -85.66153 38840 ft 498 kts 39°
2026-05-05 20:18 39.33841 -85.59254 38836 ft 497 kts 39°
2026-05-05 20:19 39.38188 -85.52325 38846 ft 497 kts 39°
2026-05-05 20:19 39.42508 -85.45423 38846 ft 498 kts 39°
2026-05-05 20:20 39.46871 -85.38437 38851 ft 500 kts 39°
2026-05-05 20:20 39.51225 -85.31450 38818 ft 501 kts 39°
2026-05-05 20:21 39.55597 -85.24417 38810 ft 501 kts 39°
2026-05-05 20:21 39.59946 -85.17409 38804 ft 500 kts 39°
2026-05-05 20:22 39.64295 -85.10383 38796 ft 502 kts 40°
2026-05-05 20:22 39.68632 -85.03361 38811 ft 502 kts 40°
2026-05-05 20:23 39.73011 -84.96255 38823 ft 506 kts 40°
2026-05-05 20:23 39.77337 -84.89220 38829 ft 502 kts 40°
2026-05-05 20:24 39.81706 -84.82095 38838 ft 501 kts 39°
2026-05-05 20:24 39.86047 -84.75005 38839 ft 501 kts 40°
2026-05-05 20:25 39.90367 -84.67931 38831 ft 502 kts 40°
2026-05-05 20:25 39.94685 -84.60847 38827 ft 504 kts 39°
2026-05-05 20:26 39.98989 -84.53764 38829 ft 498 kts 39°
2026-05-05 20:26 40.03296 -84.46667 38839 ft 501 kts 40°
2026-05-05 20:27 40.07602 -84.39551 38840 ft 501 kts 40°
2026-05-05 20:27 40.11899 -84.32433 38846 ft 500 kts 40°
2026-05-05 20:28 40.16208 -84.25285 38838 ft 501 kts 40°
2026-05-05 20:28 40.20466 -84.18197 38841 ft 497 kts 40°
2026-05-05 20:29 40.24756 -84.11046 38846 ft 501 kts 40°
2026-05-05 20:29 40.29034 -84.03889 38835 ft 500 kts 41°
2026-05-05 20:30 40.33151 -83.96625 38850 ft 500 kts 43°
2026-05-05 20:30 40.37281 -83.89332 38850 ft 501 kts 43°
2026-05-05 20:31 40.41442 -83.81970 38857 ft 502 kts 43°
2026-05-05 20:31 40.45582 -83.74626 38854 ft 503 kts 42°
2026-05-05 20:32 40.49702 -83.67303 38851 ft 501 kts 43°
2026-05-05 20:32 40.53820 -83.59963 38836 ft 500 kts 42°
2026-05-05 20:33 40.57928 -83.52622 38849 ft 499 kts 42°
2026-05-05 20:33 40.62049 -83.45246 38851 ft 503 kts 43°
2026-05-05 20:34 40.66191 -83.37813 38853 ft 501 kts 43°
2026-05-05 20:34 40.70337 -83.30383 38834 ft 506 kts 42°
2026-05-05 20:35 40.74619 -83.23134 38817 ft 500 kts 41°
2026-05-05 20:35 40.78874 -83.15895 38837 ft 498 kts 41°
2026-05-05 20:36 40.83098 -83.08695 38850 ft 500 kts 41°
2026-05-05 20:36 40.87362 -83.01408 38844 ft 504 kts 42°
2026-05-05 20:37 40.91596 -82.94151 38835 ft 500 kts 42°
2026-05-05 20:37 40.95818 -82.86902 38856 ft 503 kts 42°
2026-05-05 20:38 41.00085 -82.79552 38821 ft 502 kts 42°
2026-05-05 20:38 41.04327 -82.72235 38828 ft 505 kts 43°
2026-05-05 20:39 41.08584 -82.64871 38821 ft 504 kts 43°
2026-05-05 20:39 41.12761 -82.57621 38394 ft 486 kts 42°
2026-05-05 20:39 41.14664 -82.53901 37551 ft 494 kts 52°
2026-05-05 20:40 41.16277 -82.49934 36487 ft 499 kts 54°
2026-05-05 20:40 41.17928 -82.45850 35507 ft 505 kts 56°
2026-05-05 20:40 41.19585 -82.41750 34926 ft 507 kts 57°
2026-05-05 20:41 41.22949 -82.33414 34846 ft 520 kts 58°
2026-05-05 20:41 41.26367 -82.24921 34840 ft 525 kts 58°
2026-05-05 20:42 41.29789 -82.16397 34834 ft 524 kts 58°
2026-05-05 20:42 41.33041 -82.07704 34836 ft 529 kts 66°
2026-05-05 20:43 41.34716 -81.98201 34839 ft 535 kts 84°
2026-05-05 20:43 41.35097 -81.88393 34839 ft 533 kts 86°
2026-05-05 20:44 41.35549 -81.78558 34833 ft 535 kts 86°
2026-05-05 20:44 41.36002 -81.68727 34844 ft 534 kts 86°
2026-05-05 20:45 41.36665 -81.53996 34840 ft 535 kts 86°
2026-05-05 20:45 41.37098 -81.44132 34841 ft 533 kts 86°
2026-05-05 20:46 41.37519 -81.34341 34838 ft 534 kts 86°
2026-05-05 20:46 41.37937 -81.24458 34824 ft 535 kts 86°
2026-05-05 20:47 41.38341 -81.14656 34829 ft 535 kts 87°
2026-05-05 20:47 41.38739 -81.04846 34814 ft 534 kts 87°
2026-05-05 20:48 41.39130 -80.94976 34824 ft 537 kts 87°
2026-05-05 20:48 41.39513 -80.85098 34833 ft 535 kts 86°
2026-05-05 20:49 41.39886 -80.75308 34838 ft 533 kts 86°
2026-05-05 20:49 41.40250 -80.65473 34839 ft 533 kts 86°
2026-05-05 20:50 41.40547 -80.57267 34841 ft 531 kts 87°
2026-05-05 20:50 41.40954 -80.45798 34834 ft 532 kts 86°
2026-05-05 20:51 41.41292 -80.35995 34830 ft 532 kts 86°
2026-05-05 20:51 41.41622 -80.26183 34819 ft 529 kts 86°
2026-05-05 20:52 41.41942 -80.16430 34814 ft 529 kts 86°
2026-05-05 20:52 41.41658 -80.06644 34829 ft 531 kts 98°
2026-05-05 20:53 41.40741 -79.97000 34826 ft 528 kts 98°
2026-05-05 20:53 41.39798 -79.87327 34839 ft 528 kts 98°
2026-05-05 20:54 41.38842 -79.77612 34839 ft 530 kts 98°
2026-05-05 20:54 41.37886 -79.67999 34829 ft 528 kts 98°
2026-05-05 20:55 41.36918 -79.58321 34827 ft 529 kts 98°
2026-05-05 20:55 41.35944 -79.48679 34832 ft 528 kts 98°
2026-05-05 20:56 41.34962 -79.39045 34840 ft 528 kts 98°
2026-05-05 20:56 41.33973 -79.29411 34834 ft 527 kts 99°
2026-05-05 20:57 41.32972 -79.19756 34841 ft 528 kts 99°
2026-05-05 20:57 41.31973 -79.10191 34838 ft 525 kts 99°
2026-05-05 20:58 41.30960 -79.00574 34841 ft 526 kts 99°
2026-05-05 20:58 41.29938 -78.90945 34844 ft 525 kts 99°
2026-05-05 20:59 41.28906 -78.81317 34857 ft 531 kts 98°
2026-05-05 20:59 41.27851 -78.71545 34850 ft 537 kts 98°
2026-05-05 21:00 41.26791 -78.61802 34844 ft 533 kts 99°
2026-05-05 21:00 41.26263 -78.56986 34729 ft 520 kts 98°
2026-05-05 21:00 41.25753 -78.52344 34195 ft 509 kts 98°
2026-05-05 21:01 41.25245 -78.47740 33428 ft 503 kts 99°
2026-05-05 21:01 41.24737 -78.43164 32894 ft 500 kts 99°
2026-05-05 21:01 41.23709 -78.33931 32860 ft 514 kts 100°
2026-05-05 21:02 41.22677 -78.24731 32733 ft 488 kts 100°
2026-05-05 21:02 41.22186 -78.20383 32701 ft 466 kts 99°
2026-05-05 21:02 41.21716 -78.16232 32647 ft 446 kts 99°
2026-05-05 21:03 41.20741 -78.08162 32546 ft 453 kts 100°
2026-05-05 21:03 41.20221 -78.03966 32526 ft 464 kts 100°
2026-05-05 21:03 41.19698 -77.99744 32503 ft 473 kts 101°
2026-05-05 21:04 41.18601 -77.90948 32427 ft 493 kts 100°
2026-05-05 21:04 41.17459 -77.81839 32339 ft 509 kts 100°
2026-05-05 21:05 41.16295 -77.72614 32218 ft 505 kts 101°
2026-05-05 21:05 41.15135 -77.63500 32097 ft 504 kts 101°
2026-05-05 21:06 41.13972 -77.54413 31997 ft 503 kts 100°
2026-05-05 21:06 41.13393 -77.49902 31889 ft 491 kts 100°
2026-05-05 21:06 41.12824 -77.45489 31243 ft 482 kts 101°
2026-05-05 21:07 41.12262 -77.41152 30318 ft 479 kts 100°
2026-05-05 21:07 41.11702 -77.36839 29381 ft 475 kts 101°
2026-05-05 21:07 41.11150 -77.32595 28483 ft 472 kts 101°
2026-05-05 21:07 41.10591 -77.28310 27591 ft 467 kts 101°
2026-05-05 21:08 41.10040 -77.24105 26719 ft 463 kts 101°
2026-05-05 21:08 41.09497 -77.19967 25866 ft 458 kts 101°
2026-05-05 21:08 41.08956 -77.15860 25020 ft 452 kts 102°
2026-05-05 21:08 41.08420 -77.11802 24167 ft 447 kts 102°
2026-05-05 21:09 41.07888 -77.07782 23319 ft 441 kts 102°
2026-05-05 21:09 41.07365 -77.03848 22500 ft 436 kts 102°
2026-05-05 21:09 41.06844 -76.99933 21676 ft 430 kts 102°
2026-05-05 21:09 41.06322 -76.96030 20856 ft 426 kts 102°
2026-05-05 21:10 41.05815 -76.92246 20087 ft 421 kts 102°
2026-05-05 21:10 41.05306 -76.88451 19300 ft 416 kts 102°
2026-05-05 21:10 41.04801 -76.84697 18865 ft 409 kts 102°
2026-05-05 21:10 41.04303 -76.81011 18833 ft 411 kts 102°
2026-05-05 21:11 41.03789 -76.77213 18829 ft 428 kts 102°
2026-05-05 21:11 41.03258 -76.73305 18846 ft 439 kts 101°
2026-05-05 21:11 41.02710 -76.69267 18868 ft 443 kts 102°
2026-05-05 21:11 41.02047 -76.65350 18869 ft 439 kts 108°
2026-05-05 21:12 41.01131 -76.61488 18877 ft 440 kts 109°
2026-05-05 21:12 41.00203 -76.57617 18882 ft 442 kts 109°
2026-05-05 21:12 40.99284 -76.53783 18882 ft 442 kts 109°
2026-05-05 21:12 40.98352 -76.49905 18891 ft 442 kts 109°
2026-05-05 21:13 40.97420 -76.46035 18899 ft 441 kts 109°
2026-05-05 21:13 40.96493 -76.42193 18902 ft 444 kts 109°
2026-05-05 21:13 40.95554 -76.38302 18908 ft 441 kts 109°
2026-05-05 21:13 40.94614 -76.34418 18920 ft 444 kts 110°
2026-05-05 21:14 40.93685 -76.30582 18914 ft 442 kts 109°
2026-05-05 21:14 40.92751 -76.26734 18909 ft 441 kts 109°
2026-05-05 21:14 40.91806 -76.22847 18840 ft 441 kts 109°
2026-05-05 21:14 40.90871 -76.19011 18601 ft 443 kts 109°
2026-05-05 21:15 40.89932 -76.15160 18123 ft 439 kts 109°
2026-05-05 21:15 40.89000 -76.11343 17634 ft 431 kts 109°
2026-05-05 21:15 40.88097 -76.07652 17164 ft 416 kts 110°
2026-05-05 21:15 40.87217 -76.04060 16717 ft 401 kts 110°
2026-05-05 21:16 40.86376 -76.00634 16301 ft 391 kts 110°
2026-05-05 21:16 40.85537 -75.97224 15876 ft 390 kts 110°
2026-05-05 21:16 40.84708 -75.93859 15446 ft 391 kts 110°
2026-05-05 21:16 40.83868 -75.90449 15012 ft 391 kts 110°
2026-05-05 21:17 40.83028 -75.87048 14571 ft 390 kts 110°
2026-05-05 21:17 40.82193 -75.83672 14143 ft 387 kts 111°
2026-05-05 21:17 40.81353 -75.80279 13712 ft 386 kts 111°
2026-05-05 21:17 40.80528 -75.76950 13286 ft 385 kts 111°
2026-05-05 21:18 40.79702 -75.73624 13040 ft 379 kts 111°
2026-05-05 21:18 40.78876 -75.70305 13024 ft 378 kts 111°
2026-05-05 21:18 40.78059 -75.67025 13027 ft 381 kts 111°
2026-05-05 21:18 40.77227 -75.63687 13015 ft 382 kts 111°
2026-05-05 21:19 40.76409 -75.60412 12990 ft 381 kts 111°
2026-05-05 21:19 40.75581 -75.57098 13013 ft 381 kts 111°
2026-05-05 21:19 40.74739 -75.53738 13014 ft 381 kts 111°
2026-05-05 21:19 40.73907 -75.50422 13017 ft 382 kts 111°
2026-05-05 21:20 40.73081 -75.47130 13018 ft 381 kts 111°
2026-05-05 21:20 40.72317 -75.43768 13022 ft 382 kts 107°
2026-05-05 21:20 40.71654 -75.40391 13021 ft 383 kts 107°
2026-05-05 21:20 40.70987 -75.37016 13020 ft 382 kts 107°
2026-05-05 21:21 40.70310 -75.33613 13017 ft 382 kts 107°
2026-05-05 21:21 40.69635 -75.30222 13011 ft 384 kts 108°
2026-05-05 21:21 40.68959 -75.26836 13021 ft 382 kts 108°
2026-05-05 21:21 40.68286 -75.23472 13028 ft 382 kts 108°
2026-05-05 21:22 40.67610 -75.20094 13024 ft 380 kts 108°
2026-05-05 21:22 40.66933 -75.16768 13026 ft 379 kts 111°
2026-05-05 21:22 40.65686 -75.13776 13037 ft 368 kts 135°
2026-05-05 21:22 40.63997 -75.11265 13030 ft 367 kts 138°
2026-05-05 21:23 40.62305 -75.08826 12838 ft 353 kts 139°
2026-05-05 21:23 40.60653 -75.06467 12211 ft 350 kts 139°
2026-05-05 21:23 40.59016 -75.04137 11467 ft 350 kts 139°
2026-05-05 21:23 40.57390 -75.01775 10921 ft 346 kts 132°
2026-05-05 21:24 40.56292 -74.98981 10539 ft 344 kts 116°
2026-05-05 21:24 40.55433 -74.96137 10205 ft 332 kts 116°
2026-05-05 21:24 40.54585 -74.93311 10049 ft 327 kts 116°
2026-05-05 21:24 40.53760 -74.90553 10023 ft 324 kts 116°
2026-05-05 21:25 40.52945 -74.87830 10029 ft 322 kts 116°
2026-05-05 21:25 40.52127 -74.85097 10004 ft 322 kts 116°
2026-05-05 21:25 40.51306 -74.82359 10018 ft 322 kts 116°
2026-05-05 21:25 40.50497 -74.79658 10030 ft 322 kts 116°
2026-05-05 21:26 40.49670 -74.76907 10013 ft 323 kts 116°
2026-05-05 21:26 40.48848 -74.74165 10008 ft 322 kts 116°
2026-05-05 21:26 40.48025 -74.71433 10023 ft 323 kts 116°
2026-05-05 21:26 40.47203 -74.68703 10007 ft 323 kts 116°
2026-05-05 21:27 40.46414 -74.65933 10034 ft 326 kts 106°
2026-05-05 21:27 40.46425 -74.62951 10049 ft 332 kts 73°
2026-05-05 21:27 40.47363 -74.60214 10053 ft 333 kts 61°
2026-05-05 21:27 40.48430 -74.57497 10023 ft 332 kts 61°
2026-05-05 21:28 40.49484 -74.54806 10012 ft 332 kts 61°
2026-05-05 21:28 40.50541 -74.52116 10013 ft 333 kts 61°
2026-05-05 21:28 40.51590 -74.49447 10011 ft 332 kts 61°
2026-05-05 21:28 40.52629 -74.46793 9991 ft 323 kts 61°
2026-05-05 21:29 40.53656 -74.44179 10016 ft 320 kts 60°
2026-05-05 21:29 40.54673 -74.41592 10024 ft 321 kts 61°
2026-05-05 21:29 40.55711 -74.38957 10019 ft 321 kts 60°
2026-05-05 21:29 40.56737 -74.36356 10028 ft 321 kts 60°
2026-05-05 21:30 40.57764 -74.33749 10023 ft 321 kts 62°
2026-05-05 21:30 40.58791 -74.31164 10019 ft 322 kts 61°
2026-05-05 21:30 40.59817 -74.28576 10019 ft 321 kts 61°
2026-05-05 21:30 40.60848 -74.25983 10020 ft 320 kts 61°
2026-05-05 21:31 40.61877 -74.23392 10018 ft 321 kts 61°
2026-05-05 21:31 40.62920 -74.20768 10012 ft 316 kts 61°
2026-05-05 21:31 40.63911 -74.18269 9734 ft 309 kts 61°
2026-05-05 21:31 40.64912 -74.15762 9228 ft 310 kts 61°
2026-05-05 21:32 40.65922 -74.13260 8672 ft 313 kts 61°
2026-05-05 21:32 40.66957 -74.10724 8184 ft 313 kts 61°
2026-05-05 21:32 40.67993 -74.08216 7753 ft 310 kts 60°
2026-05-05 21:32 40.69376 -74.06145 7284 ft 303 kts 29°
2026-05-05 21:33 40.71225 -74.04810 6818 ft 299 kts 23°
2026-05-05 21:33 40.73076 -74.03587 6318 ft 300 kts 23°
2026-05-05 21:33 40.74932 -74.02377 5840 ft 300 kts 23°
2026-05-05 21:33 40.76815 -74.01162 5385 ft 298 kts 23°
2026-05-05 21:34 40.78653 -73.99980 4958 ft 296 kts 23°
2026-05-05 21:34 40.80514 -73.98780 4511 ft 295 kts 25°
2026-05-05 21:34 40.82248 -73.97356 4071 ft 294 kts 32°
2026-05-05 21:34 40.83923 -73.95799 3630 ft 293 kts 34°
2026-05-05 21:35 40.85552 -73.94248 3203 ft 291 kts 34°
2026-05-05 21:35 40.87209 -73.92675 3035 ft 287 kts 34°
2026-05-05 21:35 40.88772 -73.91187 3009 ft 268 kts 34°
2026-05-05 21:35 40.90247 -73.89783 3034 ft 260 kts 33°
2026-05-05 21:36 40.91734 -73.88366 3022 ft 262 kts 34°
2026-05-05 21:36 40.93215 -73.86962 3016 ft 263 kts 34°
2026-05-05 21:36 40.94725 -73.85526 3011 ft 264 kts 34°
2026-05-05 21:36 40.96223 -73.84113 3013 ft 265 kts 33°
2026-05-05 21:37 40.97683 -73.82709 2991 ft 253 kts 39°
2026-05-05 21:37 40.98688 -73.80919 3001 ft 244 kts 77°
2026-05-05 21:37 40.98652 -73.78756 3031 ft 229 kts 121°
2026-05-05 21:37 40.97722 -73.77206 3049 ft 213 kts 147°
2026-05-05 21:38 40.96614 -73.75939 3026 ft 213 kts 149°
2026-05-05 21:38 40.95373 -73.74949 3019 ft 202 kts 170°
2026-05-05 21:38 40.94014 -73.74653 3014 ft 194 kts 195°
2026-05-05 21:38 40.92783 -73.75273 3029 ft 186 kts 212°
2026-05-05 21:39 40.91673 -73.76112 3004 ft 181 kts 212°
2026-05-05 21:39 40.90597 -73.76939 3002 ft 176 kts 212°
2026-05-05 21:39 40.89571 -73.77834 3017 ft 171 kts 218°
2026-05-05 21:39 40.88677 -73.78655 2957 ft 146 kts 216°
2026-05-05 21:40 40.87856 -73.79364 2920 ft 139 kts 215°
2026-05-05 21:40 40.87049 -73.80043 2838 ft 130 kts 214°
2026-05-05 21:40 40.86296 -73.80671 2453 ft 130 kts 214°
2026-05-05 21:40 40.85567 -73.81274 2278 ft 113 kts 214°
2026-05-05 21:41 40.84923 -73.81806 1998 ft 106 kts 215°
2026-05-05 21:41 40.84302 -73.82320 1622 ft 107 kts 214°
2026-05-05 21:41 40.83672 -73.82842 1220 ft 110 kts 213°
2026-05-05 21:41 40.83067 -73.83342 1021 ft 94 kts 212°
2026-05-05 21:42 40.82529 -73.83776 695 ft 96 kts 210°
2026-05-05 21:42 40.81950 -73.84212 441 ft 86 kts 208°